Year,Month,Day,Hour,Minute,Value (Times are PST for windgust in km/hr)
2016,10,13,00,00,16.10
2016,10,13,00,01,9.60
2016,10,13,00,02,4.80
2016,10,13,00,03,8.10
2016,10,13,00,04,4.80
2016,10,13,00,05,6.40
2016,10,13,00,06,4.80
2016,10,13,00,07,4.80
2016,10,13,00,08,4.80
2016,10,13,00,09,6.40
2016,10,13,00,10,4.80
2016,10,13,00,11,6.40
2016,10,13,00,12,6.40
2016,10,13,00,13,4.80
2016,10,13,00,14,4.80
2016,10,13,00,15,4.80
2016,10,13,00,16,3.20
2016,10,13,00,17,4.80
2016,10,13,00,18,4.80
2016,10,13,00,19,4.80
2016,10,13,00,20,3.20
2016,10,13,00,21,3.20
2016,10,13,00,22,4.80
2016,10,13,00,23,3.20
2016,10,13,00,24,3.20
2016,10,13,00,25,4.80
2016,10,13,00,26,6.40
2016,10,13,00,27,3.20
2016,10,13,00,28,6.40
2016,10,13,00,29,6.40
2016,10,13,00,30,4.80
2016,10,13,00,31,8.10
2016,10,13,00,32,6.40
2016,10,13,00,33,8.10
2016,10,13,00,34,8.10
2016,10,13,00,35,6.40
2016,10,13,00,36,6.40
2016,10,13,00,37,4.80
2016,10,13,00,38,3.20
2016,10,13,00,39,3.20
2016,10,13,00,40,9.60
2016,10,13,00,41,4.80
2016,10,13,00,42,4.80
2016,10,13,00,43,4.80
2016,10,13,00,44,11.30
2016,10,13,00,45,4.80
2016,10,13,00,46,8.10
2016,10,13,00,47,4.80
2016,10,13,00,48,4.80
2016,10,13,00,49,4.80
2016,10,13,00,50,6.40
2016,10,13,00,51,4.80
2016,10,13,00,52,4.80
2016,10,13,00,53,3.20
2016,10,13,00,54,6.40
2016,10,13,00,55,6.40
2016,10,13,00,56,9.60
2016,10,13,00,57,9.60
2016,10,13,00,58,6.40
2016,10,13,00,59,8.10
2016,10,13,01,00,8.10
2016,10,13,01,01,8.10
2016,10,13,01,02,8.10
2016,10,13,01,03,8.10
2016,10,13,01,04,14.50
2016,10,13,01,05,6.40
2016,10,13,01,06,6.40
2016,10,13,01,07,8.10
2016,10,13,01,08,6.40
2016,10,13,01,09,9.60
2016,10,13,01,10,6.40
2016,10,13,01,11,6.40
2016,10,13,01,12,6.40
2016,10,13,01,13,8.10
2016,10,13,01,14,9.60
2016,10,13,01,15,11.30
2016,10,13,01,16,3.20
2016,10,13,01,17,4.80
2016,10,13,01,18,3.20
2016,10,13,01,19,1.60
2016,10,13,01,20,3.20
2016,10,13,01,21,6.40
2016,10,13,01,22,3.20
2016,10,13,01,23,6.40
2016,10,13,01,24,4.80
2016,10,13,01,25,8.10
2016,10,13,01,26,8.10
2016,10,13,01,27,6.40
2016,10,13,01,28,8.10
2016,10,13,01,29,4.80
2016,10,13,01,30,4.80
2016,10,13,01,31,14.50
2016,10,13,01,32,8.10
2016,10,13,01,33,8.10
2016,10,13,01,34,9.60
2016,10,13,01,35,8.10
2016,10,13,01,36,6.40
2016,10,13,01,37,4.80
2016,10,13,01,38,4.80
2016,10,13,01,39,4.80
2016,10,13,01,40,6.40
2016,10,13,01,41,8.10
2016,10,13,01,42,6.40
2016,10,13,01,43,6.40
2016,10,13,01,44,4.80
2016,10,13,01,45,6.40
2016,10,13,01,46,6.40
2016,10,13,01,47,9.60
2016,10,13,01,48,14.50
2016,10,13,01,49,16.10
2016,10,13,01,50,11.30
2016,10,13,01,51,9.60
2016,10,13,01,52,16.10
2016,10,13,01,53,8.10
2016,10,13,01,54,9.60
2016,10,13,01,55,11.30
2016,10,13,01,56,8.10
2016,10,13,01,57,8.10
2016,10,13,01,58,6.40
2016,10,13,01,59,3.20
2016,10,13,02,00,6.40
2016,10,13,02,01,6.40
2016,10,13,02,02,6.40
2016,10,13,02,03,3.20
2016,10,13,02,04,4.80
2016,10,13,02,05,4.80
2016,10,13,02,06,6.40
2016,10,13,02,07,8.10
2016,10,13,02,08,6.40
2016,10,13,02,09,3.20
2016,10,13,02,10,6.40
2016,10,13,02,11,4.80
2016,10,13,02,12,6.40
2016,10,13,02,13,6.40
2016,10,13,02,14,8.10
2016,10,13,02,15,8.10
2016,10,13,02,16,6.40
2016,10,13,02,17,8.10
2016,10,13,02,18,8.10
2016,10,13,02,19,8.10
2016,10,13,02,20,8.10
2016,10,13,02,21,6.40
2016,10,13,02,22,6.40
2016,10,13,02,23,3.20
2016,10,13,02,24,16.10
2016,10,13,02,25,6.40
2016,10,13,02,26,4.80
2016,10,13,02,27,8.10
2016,10,13,02,28,4.80
2016,10,13,02,29,4.80
2016,10,13,02,30,4.80
2016,10,13,02,31,6.40
2016,10,13,02,32,9.60
2016,10,13,02,33,8.10
2016,10,13,02,34,16.10
2016,10,13,02,35,8.10
2016,10,13,02,36,8.10
2016,10,13,02,37,6.40
2016,10,13,02,38,3.20
2016,10,13,02,39,14.50
2016,10,13,02,40,4.80
2016,10,13,02,41,11.30
2016,10,13,02,42,14.50
2016,10,13,02,43,20.90
2016,10,13,02,44,8.10
2016,10,13,02,45,3.20
2016,10,13,02,46,8.10
2016,10,13,02,47,6.40
2016,10,13,02,48,9.60
2016,10,13,02,49,3.20
2016,10,13,02,50,3.20
2016,10,13,02,51,4.80
2016,10,13,02,52,9.60
2016,10,13,02,53,9.60
2016,10,13,02,54,9.60
2016,10,13,02,55,6.40
2016,10,13,02,56,8.10
2016,10,13,02,57,9.60
2016,10,13,02,58,9.60
2016,10,13,02,59,8.10
2016,10,13,03,00,9.60
2016,10,13,03,01,6.40
2016,10,13,03,02,6.40
2016,10,13,03,03,11.30
2016,10,13,03,04,14.50
2016,10,13,03,05,6.40
2016,10,13,03,06,4.80
2016,10,13,03,07,6.40
2016,10,13,03,08,8.10
2016,10,13,03,09,6.40
2016,10,13,03,10,11.30
2016,10,13,03,11,6.40
2016,10,13,03,12,3.20
2016,10,13,03,13,3.20
2016,10,13,03,14,3.20
2016,10,13,03,15,6.40
2016,10,13,03,16,3.20
2016,10,13,03,17,4.80
2016,10,13,03,18,4.80
2016,10,13,03,19,3.20
2016,10,13,03,20,3.20
2016,10,13,03,21,4.80
2016,10,13,03,22,4.80
2016,10,13,03,23,4.80
2016,10,13,03,24,4.80
2016,10,13,03,25,6.40
2016,10,13,03,26,6.40
2016,10,13,03,27,8.10
2016,10,13,03,28,6.40
2016,10,13,03,29,6.40
2016,10,13,03,30,6.40
2016,10,13,03,31,3.20
2016,10,13,03,32,6.40
2016,10,13,03,33,6.40
2016,10,13,03,34,9.60
2016,10,13,03,35,16.10
2016,10,13,03,36,8.10
2016,10,13,03,37,4.80
2016,10,13,03,38,4.80
2016,10,13,03,39,4.80
2016,10,13,03,40,4.80
2016,10,13,03,41,3.20
2016,10,13,03,42,3.20
2016,10,13,03,43,9.60
2016,10,13,03,44,6.40
2016,10,13,03,45,6.40
2016,10,13,03,46,4.80
2016,10,13,03,47,8.10
2016,10,13,03,48,3.20
2016,10,13,03,49,4.80
2016,10,13,03,50,6.40
2016,10,13,03,51,6.40
2016,10,13,03,52,6.40
2016,10,13,03,53,6.40
2016,10,13,03,54,4.80
2016,10,13,03,55,4.80
2016,10,13,03,56,4.80
2016,10,13,03,57,3.20
2016,10,13,03,58,3.20
2016,10,13,03,59,3.20
2016,10,13,04,00,1.60
2016,10,13,04,01,3.20
2016,10,13,04,02,3.20
2016,10,13,04,03,1.60
2016,10,13,04,06,1.60
2016,10,13,04,07,1.60
2016,10,13,04,08,3.20
2016,10,13,04,09,6.40
2016,10,13,04,10,1.60
2016,10,13,04,11,1.60
2016,10,13,04,12,1.60
2016,10,13,04,13,1.60
2016,10,13,04,14,1.60
2016,10,13,04,16,1.60
2016,10,13,04,17,1.60
2016,10,13,04,18,3.20
2016,10,13,04,19,1.60
2016,10,13,04,21,3.20
2016,10,13,04,22,1.60
2016,10,13,04,23,1.60
2016,10,13,04,24,1.60
2016,10,13,04,25,3.20
2016,10,13,04,26,4.80
2016,10,13,04,27,6.40
2016,10,13,04,28,4.80
2016,10,13,04,29,6.40
2016,10,13,04,30,4.80
2016,10,13,04,31,4.80
2016,10,13,04,32,3.20
2016,10,13,04,33,4.80
2016,10,13,04,34,4.80
2016,10,13,04,35,6.40
2016,10,13,04,36,4.80
2016,10,13,04,37,6.40
2016,10,13,04,38,4.80
2016,10,13,04,39,3.20
2016,10,13,04,40,8.10
2016,10,13,04,41,4.80
2016,10,13,04,42,4.80
2016,10,13,04,43,3.20
2016,10,13,04,44,4.80
2016,10,13,04,45,3.20
2016,10,13,04,46,4.80
2016,10,13,04,47,3.20
2016,10,13,04,48,3.20
2016,10,13,04,49,3.20
2016,10,13,04,50,4.80
2016,10,13,04,51,8.10
2016,10,13,04,52,8.10
2016,10,13,04,53,6.40
2016,10,13,04,58,1.60
2016,10,13,04,59,1.60
2016,10,13,05,18,1.60
2016,10,13,05,20,1.60
2016,10,13,05,22,1.60
2016,10,13,05,47,1.60
2016,10,13,05,48,1.60
2016,10,13,05,49,1.60
2016,10,13,06,03,1.60
2016,10,13,06,04,1.60
2016,10,13,06,05,1.60
2016,10,13,06,06,1.60
2016,10,13,06,08,1.60
2016,10,13,06,11,3.20
2016,10,13,06,12,1.60
2016,10,13,06,14,1.60
2016,10,13,06,15,1.60
2016,10,13,06,16,1.60
2016,10,13,06,17,3.20
2016,10,13,06,18,1.60
2016,10,13,06,19,3.20
2016,10,13,06,20,1.60
2016,10,13,06,21,3.20
2016,10,13,06,22,1.60
2016,10,13,06,23,3.20
2016,10,13,06,24,3.20
2016,10,13,06,25,3.20
2016,10,13,06,26,3.20
2016,10,13,06,27,6.40
2016,10,13,06,28,4.80
2016,10,13,06,29,6.40
2016,10,13,06,30,6.40
2016,10,13,06,31,4.80
2016,10,13,06,32,6.40
2016,10,13,06,33,8.10
2016,10,13,06,34,8.10
2016,10,13,06,35,6.40
2016,10,13,06,36,8.10
2016,10,13,06,37,9.60
2016,10,13,06,38,8.10
2016,10,13,06,39,9.60
2016,10,13,06,40,9.60
2016,10,13,06,41,9.60
2016,10,13,06,42,8.10
2016,10,13,06,43,9.60
2016,10,13,06,44,6.40
2016,10,13,06,45,6.40
2016,10,13,06,46,4.80
2016,10,13,06,47,6.40
2016,10,13,06,48,3.20
2016,10,13,06,49,8.10
2016,10,13,06,50,6.40
2016,10,13,06,51,4.80
2016,10,13,06,52,1.60
2016,10,13,06,54,3.20
2016,10,13,06,55,3.20
2016,10,13,06,56,1.60
2016,10,13,07,01,1.60
2016,10,13,07,02,1.60
2016,10,13,07,03,1.60
2016,10,13,07,04,1.60
2016,10,13,07,05,3.20
2016,10,13,07,06,3.20
2016,10,13,07,07,1.60
2016,10,13,07,10,1.60
2016,10,13,07,11,1.60
2016,10,13,07,16,1.60
2016,10,13,07,17,1.60
2016,10,13,07,18,3.20
2016,10,13,07,19,3.20
2016,10,13,07,20,1.60
2016,10,13,07,21,1.60
2016,10,13,07,26,1.60
2016,10,13,07,27,1.60
2016,10,13,07,28,1.60
2016,10,13,07,29,1.60
2016,10,13,07,30,1.60
2016,10,13,07,31,1.60
2016,10,13,07,34,1.60
2016,10,13,07,35,3.20
2016,10,13,07,36,3.20
2016,10,13,07,37,3.20
2016,10,13,07,38,3.20
2016,10,13,07,39,3.20
2016,10,13,07,40,3.20
2016,10,13,07,41,3.20
2016,10,13,07,42,3.20
2016,10,13,07,43,3.20
2016,10,13,07,44,3.20
2016,10,13,07,45,3.20
2016,10,13,07,46,4.80
2016,10,13,07,47,3.20
2016,10,13,07,48,4.80
2016,10,13,07,49,4.80
2016,10,13,07,50,3.20
2016,10,13,07,51,1.60
2016,10,13,07,52,3.20
2016,10,13,07,53,3.20
2016,10,13,07,54,4.80
2016,10,13,07,55,3.20
2016,10,13,07,56,1.60
2016,10,13,07,57,3.20
2016,10,13,07,58,3.20
2016,10,13,07,59,4.80
2016,10,13,08,00,3.20
2016,10,13,08,01,4.80
2016,10,13,08,02,4.80
2016,10,13,08,03,3.20
2016,10,13,08,04,4.80
2016,10,13,08,05,6.40
2016,10,13,08,06,4.80
2016,10,13,08,07,3.20
2016,10,13,08,08,1.60
2016,10,13,08,09,4.80
2016,10,13,08,10,3.20
2016,10,13,08,11,4.80
2016,10,13,08,12,4.80
2016,10,13,08,13,4.80
2016,10,13,08,14,3.20
2016,10,13,08,15,3.20
2016,10,13,08,16,3.20
2016,10,13,08,17,4.80
2016,10,13,08,18,3.20
2016,10,13,08,19,3.20
2016,10,13,08,20,3.20
2016,10,13,08,21,1.60
2016,10,13,08,22,3.20
2016,10,13,08,23,3.20
2016,10,13,08,24,3.20
2016,10,13,08,25,3.20
2016,10,13,08,26,3.20
2016,10,13,08,27,3.20
2016,10,13,08,28,3.20
2016,10,13,08,29,1.60
2016,10,13,08,30,1.60
2016,10,13,08,31,3.20
2016,10,13,08,32,4.80
2016,10,13,08,33,3.20
2016,10,13,08,34,3.20
2016,10,13,08,35,3.20
2016,10,13,08,36,1.60
2016,10,13,08,37,1.60
2016,10,13,08,38,4.80
2016,10,13,08,39,1.60
2016,10,13,08,40,3.20
2016,10,13,08,41,3.20
2016,10,13,08,42,4.80
2016,10,13,08,43,8.10
2016,10,13,08,44,4.80
2016,10,13,08,45,3.20
2016,10,13,08,46,4.80
2016,10,13,08,47,4.80
2016,10,13,08,48,4.80
2016,10,13,08,49,3.20
2016,10,13,08,50,4.80
2016,10,13,08,51,6.40
2016,10,13,08,52,3.20
2016,10,13,08,53,1.60
2016,10,13,08,55,1.60
2016,10,13,09,00,3.20
2016,10,13,09,01,1.60
2016,10,13,09,03,1.60
2016,10,13,09,09,1.60
2016,10,13,09,15,1.60
2016,10,13,09,16,1.60
2016,10,13,09,17,1.60
2016,10,13,09,18,1.60
2016,10,13,09,19,1.60
2016,10,13,09,20,1.60
2016,10,13,09,21,1.60
2016,10,13,09,22,1.60
2016,10,13,09,24,1.60
2016,10,13,09,27,1.60
2016,10,13,09,28,1.60
2016,10,13,09,29,3.20
2016,10,13,09,30,3.20
2016,10,13,09,31,3.20
2016,10,13,09,32,3.20
2016,10,13,09,33,3.20
2016,10,13,09,34,1.60
2016,10,13,09,35,1.60
2016,10,13,09,36,1.60
2016,10,13,09,37,1.60
2016,10,13,09,44,1.60
2016,10,13,09,45,4.80
2016,10,13,09,46,4.80
2016,10,13,09,47,4.80
2016,10,13,09,48,1.60
2016,10,13,09,49,4.80
2016,10,13,09,50,4.80
2016,10,13,09,51,1.60
2016,10,13,09,52,1.60
2016,10,13,09,55,3.20
2016,10,13,09,56,4.80
2016,10,13,09,57,3.20
2016,10,13,09,58,3.20
2016,10,13,09,59,3.20
2016,10,13,10,00,4.80
2016,10,13,10,01,4.80
2016,10,13,10,02,4.80
2016,10,13,10,03,1.60
2016,10,13,10,04,4.80
2016,10,13,10,05,4.80
2016,10,13,10,06,4.80
2016,10,13,10,07,3.20
2016,10,13,10,08,1.60
2016,10,13,10,14,1.60
2016,10,13,10,15,1.60
2016,10,13,10,16,1.60
2016,10,13,10,17,4.80
2016,10,13,10,18,4.80
2016,10,13,10,19,3.20
2016,10,13,10,20,4.80
2016,10,13,10,21,4.80
2016,10,13,10,22,4.80
2016,10,13,10,23,6.40
2016,10,13,10,24,9.60
2016,10,13,10,25,9.60
2016,10,13,10,26,8.10
2016,10,13,10,27,9.60
2016,10,13,10,28,9.60
2016,10,13,10,29,9.60
2016,10,13,10,30,8.10
2016,10,13,10,31,6.40
2016,10,13,10,32,9.60
2016,10,13,10,33,6.40
2016,10,13,10,34,8.10
2016,10,13,10,35,9.60
2016,10,13,10,36,11.30
2016,10,13,10,37,9.60
2016,10,13,10,38,8.10
2016,10,13,10,39,8.10
2016,10,13,10,40,4.80
2016,10,13,10,41,6.40
2016,10,13,10,42,4.80
2016,10,13,10,43,6.40
2016,10,13,10,44,3.20
2016,10,13,10,45,4.80
2016,10,13,10,46,6.40
2016,10,13,10,47,4.80
2016,10,13,10,48,6.40
2016,10,13,10,49,6.40
2016,10,13,10,50,8.10
2016,10,13,10,51,6.40
2016,10,13,10,52,9.60
2016,10,13,10,53,8.10
2016,10,13,10,54,11.30
2016,10,13,10,55,9.60
2016,10,13,10,56,9.60
2016,10,13,10,57,9.60
2016,10,13,10,58,9.60
2016,10,13,10,59,6.40
2016,10,13,11,00,6.40
2016,10,13,11,01,9.60
2016,10,13,11,02,9.60
2016,10,13,11,03,8.10
2016,10,13,11,04,8.10
2016,10,13,11,05,9.60
2016,10,13,11,06,6.40
2016,10,13,11,07,8.10
2016,10,13,11,08,8.10
2016,10,13,11,09,6.40
2016,10,13,11,10,8.10
2016,10,13,11,11,4.80
2016,10,13,11,12,4.80
2016,10,13,11,13,6.40
2016,10,13,11,14,8.10
2016,10,13,11,15,6.40
2016,10,13,11,16,9.60
2016,10,13,11,17,6.40
2016,10,13,11,18,8.10
2016,10,13,11,19,6.40
2016,10,13,11,20,8.10
2016,10,13,11,21,11.30
2016,10,13,11,22,4.80
2016,10,13,11,23,8.10
2016,10,13,11,24,6.40
2016,10,13,11,25,8.10
2016,10,13,11,26,8.10
2016,10,13,11,27,6.40
2016,10,13,11,28,6.40
2016,10,13,11,29,8.10
2016,10,13,11,30,6.40
2016,10,13,11,31,6.40
2016,10,13,11,32,6.40
2016,10,13,11,33,6.40
2016,10,13,11,34,4.80
2016,10,13,11,35,4.80
2016,10,13,11,36,9.60
2016,10,13,11,37,12.90
2016,10,13,11,38,9.60
2016,10,13,11,39,8.10
2016,10,13,11,40,8.10
2016,10,13,11,41,8.10
2016,10,13,11,42,6.40
2016,10,13,11,43,6.40
2016,10,13,11,44,6.40
2016,10,13,11,45,9.60
2016,10,13,11,46,6.40
2016,10,13,11,47,4.80
2016,10,13,11,48,3.20
2016,10,13,11,49,4.80
2016,10,13,11,50,3.20
2016,10,13,11,51,9.60
2016,10,13,11,52,6.40
2016,10,13,11,53,8.10
2016,10,13,11,54,9.60
2016,10,13,11,55,8.10
2016,10,13,11,56,6.40
2016,10,13,11,57,4.80
2016,10,13,11,58,3.20
2016,10,13,11,59,6.40
2016,10,13,12,00,4.80
2016,10,13,12,01,3.20
2016,10,13,12,02,3.20
2016,10,13,12,03,3.20
2016,10,13,12,04,3.20
2016,10,13,12,05,1.60
2016,10,13,12,12,1.60
2016,10,13,12,14,1.60
2016,10,13,12,15,1.60
2016,10,13,12,16,1.60
2016,10,13,12,19,1.60
2016,10,13,12,24,1.60
2016,10,13,12,25,1.60
2016,10,13,12,26,1.60
2016,10,13,12,27,4.80
2016,10,13,12,28,4.80
2016,10,13,12,29,8.10
2016,10,13,12,30,9.60
2016,10,13,12,31,6.40
2016,10,13,12,32,9.60
2016,10,13,12,33,9.60
2016,10,13,12,34,9.60
2016,10,13,12,35,4.80
2016,10,13,12,36,1.60
2016,10,13,12,37,1.60
2016,10,13,12,38,3.20
2016,10,13,12,39,4.80
2016,10,13,12,40,6.40
2016,10,13,12,41,1.60
2016,10,13,12,42,3.20
2016,10,13,12,43,4.80
2016,10,13,12,44,4.80
2016,10,13,12,45,9.60
2016,10,13,12,46,6.40
2016,10,13,12,47,6.40
2016,10,13,12,48,4.80
2016,10,13,12,49,4.80
2016,10,13,12,50,1.60
2016,10,13,12,51,4.80
2016,10,13,12,52,3.20
2016,10,13,12,53,4.80
2016,10,13,12,54,8.10
2016,10,13,12,55,6.40
2016,10,13,12,56,3.20
2016,10,13,12,57,6.40
2016,10,13,12,58,6.40
2016,10,13,12,59,4.80
2016,10,13,13,00,3.20
2016,10,13,13,01,8.10
2016,10,13,13,02,6.40
2016,10,13,13,03,6.40
2016,10,13,13,04,6.40
2016,10,13,13,05,6.40
2016,10,13,13,06,14.50
2016,10,13,13,07,6.40
2016,10,13,13,08,11.30
2016,10,13,13,09,8.10
2016,10,13,13,10,9.60
2016,10,13,13,11,6.40
2016,10,13,13,12,8.10
2016,10,13,13,13,8.10
2016,10,13,13,14,8.10
2016,10,13,13,15,4.80
2016,10,13,13,16,3.20
2016,10,13,13,17,3.20
2016,10,13,13,18,6.40
2016,10,13,13,19,3.20
2016,10,13,13,20,3.20
2016,10,13,13,21,1.60
2016,10,13,13,22,1.60
2016,10,13,13,23,1.60
2016,10,13,13,25,1.60
2016,10,13,13,26,1.60
2016,10,13,13,27,3.20
2016,10,13,13,28,4.80
2016,10,13,13,29,9.60
2016,10,13,13,30,8.10
2016,10,13,13,31,4.80
2016,10,13,13,32,4.80
2016,10,13,13,33,3.20
2016,10,13,13,34,8.10
2016,10,13,13,35,6.40
2016,10,13,13,36,9.60
2016,10,13,13,37,11.30
2016,10,13,13,38,11.30
2016,10,13,13,39,9.60
2016,10,13,13,40,11.30
2016,10,13,13,41,9.60
2016,10,13,13,42,11.30
2016,10,13,13,43,9.60
2016,10,13,13,44,12.90
2016,10,13,13,45,14.50
2016,10,13,13,46,14.50
2016,10,13,13,47,12.90
2016,10,13,13,48,11.30
2016,10,13,13,49,17.70
2016,10,13,13,50,16.10
2016,10,13,13,51,16.10
2016,10,13,13,52,17.70
2016,10,13,13,53,17.70
2016,10,13,13,54,14.50
2016,10,13,13,55,16.10
2016,10,13,13,56,14.50
2016,10,13,13,57,14.50
2016,10,13,13,58,16.10
2016,10,13,13,59,16.10
2016,10,13,14,00,16.10
2016,10,13,14,01,11.30
2016,10,13,14,02,16.10
2016,10,13,14,03,16.10
2016,10,13,14,04,14.50
2016,10,13,14,05,11.30
2016,10,13,14,06,12.90
2016,10,13,14,07,8.10
2016,10,13,14,08,17.70
2016,10,13,14,09,14.50
2016,10,13,14,10,16.10
2016,10,13,14,11,16.10
2016,10,13,14,12,12.90
2016,10,13,14,13,11.30
2016,10,13,14,14,9.60
2016,10,13,14,15,11.30
2016,10,13,14,16,11.30
2016,10,13,14,17,11.30
2016,10,13,14,18,11.30
2016,10,13,14,19,16.10
2016,10,13,14,20,11.30
2016,10,13,14,21,8.10
2016,10,13,14,22,17.70
2016,10,13,14,23,11.30
2016,10,13,14,24,11.30
2016,10,13,14,25,11.30
2016,10,13,14,26,9.60
2016,10,13,14,27,8.10
2016,10,13,14,28,11.30
2016,10,13,14,29,11.30
2016,10,13,14,30,9.60
2016,10,13,14,31,9.60
2016,10,13,14,32,8.10
2016,10,13,14,33,9.60
2016,10,13,14,34,16.10
2016,10,13,14,35,19.30
2016,10,13,14,36,20.90
2016,10,13,14,37,19.30
2016,10,13,14,38,20.90
2016,10,13,14,39,16.10
2016,10,13,14,40,17.70
2016,10,13,14,41,19.30
2016,10,13,14,42,19.30
2016,10,13,14,43,16.10
2016,10,13,14,44,16.10
2016,10,13,14,45,20.90
2016,10,13,14,46,17.70
2016,10,13,14,47,16.10
2016,10,13,14,48,16.10
2016,10,13,14,49,20.90
2016,10,13,14,50,19.30
2016,10,13,14,51,19.30
2016,10,13,14,52,16.10
2016,10,13,14,53,17.70
2016,10,13,14,54,22.50
2016,10,13,14,55,20.90
2016,10,13,14,56,19.30
2016,10,13,14,57,19.30
2016,10,13,14,58,22.50
2016,10,13,14,59,20.90
2016,10,13,15,00,20.90
2016,10,13,15,01,24.20
2016,10,13,15,02,19.30
2016,10,13,15,03,19.30
2016,10,13,15,04,19.30
2016,10,13,15,05,27.40
2016,10,13,15,06,22.50
2016,10,13,15,07,16.10
2016,10,13,15,08,16.10
2016,10,13,15,09,17.70
2016,10,13,15,10,17.70
2016,10,13,15,11,20.90
2016,10,13,15,12,17.70
2016,10,13,15,13,16.10
2016,10,13,15,14,20.90
2016,10,13,15,15,17.70
2016,10,13,15,16,19.30
2016,10,13,15,17,16.10
2016,10,13,15,18,20.90
2016,10,13,15,19,19.30
2016,10,13,15,20,16.10
2016,10,13,15,21,8.10
2016,10,13,15,22,4.80
2016,10,13,15,23,1.60
2016,10,13,15,24,6.40
2016,10,13,15,25,4.80
2016,10,13,15,26,6.40
2016,10,13,15,27,3.20
2016,10,13,15,28,6.40
2016,10,13,15,29,3.20
2016,10,13,15,33,6.40
2016,10,13,15,34,6.40
2016,10,13,15,35,3.20
2016,10,13,15,36,1.60
2016,10,13,15,37,1.60
2016,10,13,15,38,1.60
2016,10,13,15,39,1.60
2016,10,13,15,40,1.60
2016,10,13,15,41,3.20
2016,10,13,15,42,6.40
2016,10,13,15,43,6.40
2016,10,13,15,44,4.80
2016,10,13,15,45,3.20
2016,10,13,15,46,6.40
2016,10,13,15,47,4.80
2016,10,13,15,48,6.40
2016,10,13,15,49,4.80
2016,10,13,15,50,3.20
2016,10,13,15,51,4.80
2016,10,13,15,52,6.40
2016,10,13,15,53,6.40
2016,10,13,15,54,9.60
2016,10,13,15,55,8.10
2016,10,13,15,56,6.40
2016,10,13,15,57,9.60
2016,10,13,15,58,6.40
2016,10,13,15,59,14.50
2016,10,13,16,00,6.40
2016,10,13,16,01,4.80
2016,10,13,16,02,8.10
2016,10,13,16,03,8.10
2016,10,13,16,04,9.60
2016,10,13,16,05,9.60
2016,10,13,16,06,11.30
2016,10,13,16,07,8.10
2016,10,13,16,08,14.50
2016,10,13,16,09,11.30
2016,10,13,16,10,3.20
2016,10,13,16,12,8.10
2016,10,13,16,13,8.10
2016,10,13,16,14,3.20
2016,10,13,16,15,1.60
2016,10,13,16,16,1.60
2016,10,13,16,17,1.60
2016,10,13,16,18,1.60
2016,10,13,16,19,1.60
2016,10,13,16,20,1.60
2016,10,13,16,22,6.40
2016,10,13,16,23,4.80
2016,10,13,16,24,4.80
2016,10,13,16,25,4.80
2016,10,13,16,26,4.80
2016,10,13,16,27,4.80
2016,10,13,16,28,6.40
2016,10,13,16,29,4.80
2016,10,13,16,30,1.60
2016,10,13,16,31,3.20
2016,10,13,16,32,4.80
2016,10,13,16,33,3.20
2016,10,13,16,34,4.80
2016,10,13,16,35,3.20
2016,10,13,16,36,1.60
2016,10,13,16,37,4.80
2016,10,13,16,38,4.80
2016,10,13,16,39,4.80
2016,10,13,16,40,4.80
2016,10,13,16,41,1.60
2016,10,13,16,42,6.40
2016,10,13,16,43,8.10
2016,10,13,16,44,11.30
2016,10,13,16,45,8.10
2016,10,13,16,46,9.60
2016,10,13,16,47,8.10
2016,10,13,16,48,6.40
2016,10,13,16,49,3.20
2016,10,13,16,50,8.10
2016,10,13,16,51,9.60
2016,10,13,16,52,11.30
2016,10,13,16,53,12.90
2016,10,13,16,54,4.80
2016,10,13,16,55,3.20
2016,10,13,16,56,4.80
2016,10,13,16,57,6.40
2016,10,13,16,58,1.60
2016,10,13,16,59,1.60
2016,10,13,17,00,4.80
2016,10,13,17,01,1.60
2016,10,13,17,02,4.80
2016,10,13,17,03,3.20
2016,10,13,17,04,1.60
2016,10,13,17,05,1.60
2016,10,13,17,06,1.60
2016,10,13,17,07,3.20
2016,10,13,17,08,1.60
2016,10,13,17,09,3.20
2016,10,13,17,10,6.40
2016,10,13,17,11,19.30
2016,10,13,17,12,4.80
2016,10,13,17,13,14.50
2016,10,13,17,14,16.10
2016,10,13,17,15,14.50
2016,10,13,17,16,6.40
2016,10,13,17,17,6.40
2016,10,13,17,18,19.30
2016,10,13,17,19,17.70
2016,10,13,17,20,6.40
2016,10,13,17,21,9.60
2016,10,13,17,22,14.50
2016,10,13,17,23,12.90
2016,10,13,17,24,9.60
2016,10,13,17,25,6.40
2016,10,13,17,26,12.90
2016,10,13,17,27,8.10
2016,10,13,17,28,9.60
2016,10,13,17,29,14.50
2016,10,13,17,30,11.30
2016,10,13,17,31,22.50
2016,10,13,17,32,17.70
2016,10,13,17,33,12.90
2016,10,13,17,34,14.50
2016,10,13,17,35,16.10
2016,10,13,17,36,17.70
2016,10,13,17,37,30.60
2016,10,13,17,38,30.60
2016,10,13,17,39,29.00
2016,10,13,17,40,29.00
2016,10,13,17,41,33.80
2016,10,13,17,42,25.70
2016,10,13,17,43,20.90
2016,10,13,17,44,22.50
2016,10,13,17,45,29.00
2016,10,13,17,46,29.00
2016,10,13,17,47,29.00
2016,10,13,17,48,19.30
2016,10,13,17,49,19.30
2016,10,13,17,50,14.50
2016,10,13,17,51,14.50
2016,10,13,17,52,16.10
2016,10,13,17,53,17.70
2016,10,13,17,54,17.70
2016,10,13,17,55,19.30
2016,10,13,17,56,17.70
2016,10,13,17,57,8.10
2016,10,13,17,58,9.60
2016,10,13,17,59,17.70
2016,10,13,18,00,16.10
2016,10,13,18,01,16.10
2016,10,13,18,02,16.10
2016,10,13,18,03,20.90
2016,10,13,18,04,16.10
2016,10,13,18,05,14.50
2016,10,13,18,06,20.90
2016,10,13,18,07,30.60
2016,10,13,18,08,20.90
2016,10,13,18,09,30.60
2016,10,13,18,10,27.40
2016,10,13,18,11,19.30
2016,10,13,18,12,19.30
2016,10,13,18,13,11.30
2016,10,13,18,14,20.90
2016,10,13,18,15,17.70
2016,10,13,18,16,17.70
2016,10,13,18,17,25.70
2016,10,13,18,18,17.70
2016,10,13,18,19,16.10
2016,10,13,18,20,17.70
2016,10,13,18,21,22.50
2016,10,13,18,22,27.40
2016,10,13,18,23,14.50
2016,10,13,18,24,29.00
2016,10,13,18,25,27.40
2016,10,13,18,26,29.00
2016,10,13,18,27,20.90
2016,10,13,18,28,27.40
2016,10,13,18,29,29.00
2016,10,13,18,30,27.40
2016,10,13,18,31,25.70
2016,10,13,18,32,32.20
2016,10,13,18,33,25.70
2016,10,13,18,34,24.20
2016,10,13,18,35,35.40
2016,10,13,18,36,38.60
2016,10,13,18,37,37.00
2016,10,13,18,38,38.60
2016,10,13,18,39,29.00
2016,10,13,18,40,30.60
2016,10,13,18,41,27.40
2016,10,13,18,42,35.40
2016,10,13,18,43,24.20
2016,10,13,18,44,30.60
2016,10,13,18,45,24.20
2016,10,13,18,46,35.40
2016,10,13,18,47,35.40
2016,10,13,18,48,29.00
2016,10,13,18,49,38.60
2016,10,13,18,50,40.20
2016,10,13,18,51,37.00
2016,10,13,18,52,40.20
2016,10,13,18,53,30.60
2016,10,13,18,54,29.00
2016,10,13,18,55,43.50
2016,10,13,18,56,45.10
2016,10,13,18,57,32.20
2016,10,13,18,58,22.50
2016,10,13,18,59,22.50
2016,10,13,19,00,25.70
2016,10,13,19,01,20.90
2016,10,13,19,02,41.80
2016,10,13,19,03,51.50
2016,10,13,19,04,40.20
2016,10,13,19,05,32.20
2016,10,13,19,06,30.60
2016,10,13,19,07,32.20
2016,10,13,19,08,22.50
2016,10,13,19,09,29.00
2016,10,13,19,10,30.60
2016,10,13,19,11,29.00
2016,10,13,19,12,33.80
2016,10,13,19,13,33.80
2016,10,13,19,14,38.60
2016,10,13,19,15,22.50
2016,10,13,19,16,37.00
2016,10,13,19,17,37.00
2016,10,13,19,18,29.00
2016,10,13,19,19,29.00
2016,10,13,19,20,27.40
2016,10,13,19,21,29.00
2016,10,13,19,22,24.20
2016,10,13,19,23,33.80
2016,10,13,19,24,32.20
2016,10,13,19,25,29.00
2016,10,13,19,26,22.50
2016,10,13,19,27,38.60
2016,10,13,19,28,37.00
2016,10,13,19,29,30.60
2016,10,13,19,30,37.00
2016,10,13,19,31,33.80
2016,10,13,19,32,37.00
2016,10,13,19,33,30.60
2016,10,13,19,34,27.40
2016,10,13,19,35,38.60
2016,10,13,19,36,29.00
2016,10,13,19,37,29.00
2016,10,13,19,38,30.60
2016,10,13,19,39,27.40
2016,10,13,19,40,22.50
2016,10,13,19,41,22.50
2016,10,13,19,42,22.50
2016,10,13,19,43,45.10
2016,10,13,19,44,27.40
2016,10,13,19,45,29.00
2016,10,13,19,46,40.20
2016,10,13,19,47,30.60
2016,10,13,19,48,25.70
2016,10,13,19,49,51.50
2016,10,13,19,50,45.10
2016,10,13,19,51,43.50
2016,10,13,19,52,29.00
2016,10,13,19,53,20.90
2016,10,13,19,54,27.40
2016,10,13,19,55,32.20
2016,10,13,19,56,32.20
2016,10,13,19,57,30.60
2016,10,13,19,58,37.00
2016,10,13,19,59,43.50
2016,10,13,20,00,29.00
2016,10,13,20,01,41.80
2016,10,13,20,02,45.10
2016,10,13,20,03,45.10
2016,10,13,20,04,32.20
2016,10,13,20,05,37.00
2016,10,13,20,06,35.40
2016,10,13,20,07,33.80
2016,10,13,20,08,29.00
2016,10,13,20,09,41.80
2016,10,13,20,10,40.20